TimeEST,TemperatureF,Dew PointF,Humidity,Sea Level PressureIn,VisibilityMPH,Wind Direction,Wind SpeedMPH,Gust SpeedMPH,PrecipitationIn,Events,Conditions,WindDirDegrees,DateUTC
12:54 AM,25.0,14.0,63,30.02,10.0,North,4.6,-,N/A,,Clear,350,2013-01-02 05:54:00
1:54 AM,24.1,14.0,65,30.02,10.0,North,5.8,-,N/A,,Clear,360,2013-01-02 06:54:00
2:54 AM,24.1,14.0,65,30.04,10.0,North,6.9,-,N/A,,Clear,350,2013-01-02 07:54:00
4:54 AM,23.0,12.9,65,30.04,10.0,North,4.6,-,N/A,,Clear,350,2013-01-02 09:54:00
5:54 AM,21.9,12.9,68,30.05,10.0,Calm,Calm,-,N/A,,Clear,0,2013-01-02 10:54:00
6:54 AM,21.9,12.0,66,30.06,10.0,NW,3.5,-,N/A,,Clear,310,2013-01-02 11:54:00
7:54 AM,21.9,12.0,66,30.08,10.0,Calm,Calm,-,N/A,,Clear,0,2013-01-02 12:54:00
8:54 AM,23.0,12.9,65,30.09,10.0,West,4.6,-,N/A,,Clear,260,2013-01-02 13:54:00
9:54 AM,26.1,14.0,60,30.11,10.0,WNW,5.8,-,N/A,,Clear,290,2013-01-02 14:54:00
10:54 AM,28.9,14.0,54,30.10,10.0,NW,12.7,18.4,N/A,,Partly Cloudy,310,2013-01-02 15:54:00
11:54 AM,30.0,15.1,54,30.08,10.0,Variable,6.9,-,N/A,,Mostly Cloudy,0,2013-01-02 16:54:00
12:54 PM,30.9,16.0,54,30.07,10.0,Variable,5.8,-,N/A,,Scattered Clouds,0,2013-01-02 17:54:00
1:54 PM,30.9,15.1,52,30.08,10.0,WNW,13.8,18.4,N/A,,Partly Cloudy,290,2013-01-02 18:54:00
2:54 PM,30.9,15.1,52,30.09,10.0,WNW,12.7,-,N/A,,Clear,290,2013-01-02 19:54:00
3:54 PM,30.9,14.0,50,30.10,10.0,WNW,9.2,-,N/A,,Clear,300,2013-01-02 20:54:00
4:54 PM,28.0,12.9,53,30.12,10.0,WNW,9.2,-,N/A,,Clear,300,2013-01-02 21:54:00
6:54 PM,26.1,14.0,60,30.17,10.0,WNW,4.6,-,N/A,,Clear,290,2013-01-02 23:54:00
7:54 PM,25.0,12.9,60,30.18,10.0,West,4.6,-,N/A,,Clear,280,2013-01-03 00:54:00
8:54 PM,25.0,12.9,60,30.18,10.0,West,3.5,-,N/A,,Clear,260,2013-01-03 01:54:00
9:54 PM,24.1,14.0,65,30.19,10.0,West,3.5,-,N/A,,Clear,270,2013-01-03 02:54:00
10:54 PM,24.1,14.0,65,30.21,10.0,West,3.5,-,N/A,,Clear,270,2013-01-03 03:54:00
11:54 PM,24.1,14.0,65,30.22,10.0,WNW,4.6,-,N/A,,Clear,290,2013-01-03 04:54:00